カタログに戻る

INFORMATOR 1

運用中アマチュア無線PO
NORAD 21087·PAYLOAD·🇷🇺 Russia

打ち上げ Jan 29, 1991 から Plesetsk Cosmodrome

Loading…

次のパス (今後24時間)

TLE

最新Source: Space-Track

元期: Sep 14, 2026, 10:29 UTC

1 21087U 91006A   26257.43740617  .00000025  00000-0  99570-5 0  9990
2 21087  82.9408  58.9812 0034814 349.0069  39.9093 13.75529201787814

AllMySatでINFORMATOR 1をリアルタイム追跡

Download on the App Store